Hourly Data Report for October 09, 2015

All times are specified in Local Standard Time (LST). Add 1 hour to adjust for Daylight Saving Time where and when it is observed.

KAMLOOPS A
BRITISH COLUMBIA

50°42'09.000" N
120°26'55.000" W
345.30 m
1163781
71887
YKA

Download Data

Hourly Data (October 2015)
Hourly Data Report for October 9, 2015
Temp Definition
°C
Dew Point Temp Definition
°C
Rel Hum Definition
%
Wind Dir Definition
10's deg

Wind Spd Definition
km/h
Visibility Definition
km
Stn Press Definition
kPa
Hmdx Definition


Wind Chill Definition


Weather Definition


TIME
00:00 Legend Double Dagger 14.5 12.2 86 11 17 64.4 97.55     LegendNANA
01:00 Legend Double Dagger 14.3 12.2 87 9 18 64.4 97.51     Cloudy
02:00 Legend Double Dagger 14.1 11.8 86 10 19 64.4 97.45     LegendNANA
03:00 Legend Double Dagger 14.2 11.9 86 11 16 64.4 97.43     LegendNANA
04:00 Legend Double Dagger 13.5 11.6 88 9 14 64.4 97.31     Mostly Cloudy
05:00 Legend Double Dagger 12.9 11.3 90 11 16 64.4 97.26     LegendNANA
06:00 Legend Double Dagger 13.6 11.5 87 8 17 64.4 97.16     LegendNANA
07:00 Legend Double Dagger 13.7 11.4 86 9 19 64.4 97.01     Mostly Cloudy
08:00 Legend Double Dagger 13.4 11.1 86 8 17 64.4 97.00     LegendNANA
09:00 Legend Double Dagger 14.3 11.5 83 7 21 64.4 96.96     LegendNANA
10:00 Legend Double Dagger 15.9 11.9 77 9 26 64.4 96.87     Mostly Cloudy
11:00 Legend Double Dagger 17.4 12.2 71 10 25 64.4 96.87     LegendNANA
12:00 Legend Double Dagger 18.4 12.0 66 10 30 64.4 96.85     LegendNANA
13:00 Legend Double Dagger 18.7 11.6 63 10 27 64.4 96.84     Mostly Cloudy
14:00 Legend Double Dagger 19.8 10.9 56 10 23 64.4 96.80     LegendNANA
15:00 Legend Double Dagger 20.4 10.9 54 13 15 64.4 96.80     LegendNANA
16:00 Legend Double Dagger 24.4 9.4 38 21 24 64.4 96.72 25   Mostly Cloudy
17:00 Legend Double Dagger 22.1 9.4 44 18 53 64.4 96.67     LegendNANA
18:00 Legend Double Dagger 21.7 10.1 47 18 38 64.4 96.73     LegendNANA
19:00 Legend Double Dagger 21.0 10.0 49 17 41 64.4 96.77     Mostly Cloudy
20:00 Legend Double Dagger 21.1 8.9 45 15 26 64.4 96.78     LegendNANA
21:00 Legend Double Dagger 19.8 10.3 54 11 30 64.4 96.73     LegendNANA
22:00 Legend Double Dagger 16.0 11.2 73 8 21 64.4 96.73     Mainly Clear
23:00 Legend Double Dagger 15.0 11.4 79 11 23 64.4 96.66     LegendNANA

Notes on Data Quality.

Legend

  • E = Estimated
  • M = Missing
  • NA = Not Available
  • ‡ = Partner data that is not subject to review by the National Climate Archives
Date modified: